Hourly Data Report for October 01, 2016

All times are specified in Local Standard Time (LST). Add 1 hour to adjust for Daylight Saving Time where and when it is observed.

BAKER LAKE A
NUNAVUT

64°17'56.000" N
96°04'40.000" W
18.60 m
2300503
71926
YBK

Download Data

Hourly Data (October 2016)
Hourly Data Report for October 1, 2016
Temp Definition
°C
Dew Point Temp Definition
°C
Rel Hum Definition
%
Wind Dir Definition
10's deg

Wind Spd Definition
km/h
Visibility Definition
km
Stn Press Definition
kPa
Hmdx Definition


Wind Chill Definition


Weather Definition


TIME
00:00 Legend Double Dagger 1.3 -1.1 84 27 23 24.1 102.28     Mostly Cloudy
01:00 Legend Double Dagger 1.1 -1.0 86 28 30 24.1 102.28     LegendNANA
02:00 Legend Double Dagger 0.8 -1.0 88 28 28 24.1 102.34     LegendNANA
03:00 Legend Double Dagger 0.8 -0.8 89 27 28 24.1 102.37     Mostly Cloudy
04:00 Legend Double Dagger 0.8 -0.8 89 28 25 24.1 102.38     LegendNANA
05:00 Legend Double Dagger 0.7 -1.2 87 27 24 24.1 102.39     LegendNANA
06:00 Legend Double Dagger 0.5 -1.3 88 28 23 32.2 102.42     Mostly Cloudy
07:00 Legend Double Dagger 0.4 -1.4 88 26 22 32.2 102.43     LegendNANA
08:00 Legend Double Dagger 0.8 -1.1 87 27 16 32.2 102.47     LegendNANA
09:00 Legend Double Dagger 1.3 -1.1 84 28 21 32.2 102.47     Mostly Cloudy
10:00 Legend Double Dagger 2.3 -0.6 81 28 21 32.2 102.47     LegendNANA
11:00 Legend Double Dagger 2.8 -0.5 79 29 26 32.2 102.48     LegendNANA
12:00 Legend Double Dagger 3.0 0.2 82 28 27 32.2 102.49     Mostly Cloudy
13:00 Legend Double Dagger 4.4 -2.0 63 28 18 32.2 102.51     LegendNANA
14:00 Legend Double Dagger 3.8 -1.2 70 28 24 32.2 102.52     LegendNANA
15:00 Legend Double Dagger 3.8 -1.4 69 28 30 32.2 102.56     Mostly Cloudy
16:00 Legend Double Dagger 3.5 -0.9 73 31 18 32.2 102.58     LegendNANA
17:00 Legend Double Dagger 2.1 -0.5 83 29 20 32.2 102.60     LegendNANA
18:00 Legend Double Dagger 1.6 -0.3 87 30 19 32.2 102.59     Mostly Cloudy
19:00 Legend Double Dagger 1.5 -0.3 88 29 15 32.2 102.61     LegendNANA
20:00 Legend Double Dagger 1.8 -0.3 86 30 19 24.1 102.64     LegendNANA
21:00 Legend Double Dagger 1.6 -0.5 86 29 16 24.1 102.67     Cloudy
22:00 Legend Double Dagger 1.3 -0.3 89 30 21 22.5 102.69     LegendNANA
23:00 Legend Double Dagger 1.4 -0.7 86 31 28 24.1 102.69     LegendNANA

Notes on Data Quality.

Legend

  • E = Estimated
  • M = Missing
  • NA = Not Available
  • ‡ = Partner data that is not subject to review by the National Climate Archives
Date modified: